Simultaneous Nadir Overpasses (SNOs) Predictions

Prediction of SNOs between METOP-B and TERRA Satellite Orbit:

Table of predicted SNOs for the next 14.0 days since TLE Epoch: 4/6/2024
Index Date (METOP-B) Time (METOP-B) Lat,Lon (METOP-B) SZA (METOP-B ) Date (TERRA) Time (TERRA) Lat,Lon (TERRA) SZA (TERRA ) Distance(km) Time Diff (sec)
1 04/06/2024 06:59:53 -80.25, -82.40 105.74 04/06/2024 07:00:54 -80.25, -82.40 105.73 0.29 61
2 04/06/2024 07:50:29 80.38, 86.40 74.46 04/06/2024 07:50:12 80.37, 86.35 74.45 0.94 17
3 04/08/2024 22:20:50 80.27,-132.49 73.31 04/08/2024 22:21:21 80.27,-132.41 73.33 1.51 31
4 04/08/2024 23:11:27 -80.37, 36.08 106.53 04/08/2024 23:10:39 -80.38, 36.23 106.52 2.73 48
5 04/11/2024 13:41:47 -80.29, 177.48 107.62 04/11/2024 13:41:47 -80.29, 177.65 107.60 3.13 0
6 04/14/2024 04:12:06 -80.22, -40.84 108.66 04/14/2024 04:12:54 -80.22, -40.75 108.64 1.68 48
7 04/14/2024 05:02:42 80.34, 127.91 71.54 04/14/2024 05:02:12 80.34, 127.97 71.54 0.99 30
8 04/16/2024 19:33:00 80.30, -90.16 70.56 04/16/2024 19:33:18 80.30, -90.28 70.55 2.30 18
9 04/16/2024 20:23:37 -80.41, 78.45 109.27 04/16/2024 20:22:36 -80.41, 78.38 109.30 1.40 61
10 04/19/2024 10:03:19 80.20, 51.10 69.49 04/19/2024 10:04:24 80.20, 51.06 69.50 0.91 65



Historial Predications of SNOs between METOP-B and TERRA
